Temp
12 12 11 12 12 12 11 10 10 11 11 10 10 10 11 11 11 10 9 9 9 9 9 9 9 9 9 9 9 10 9 9 9 9 9 9 9 8 8 8 8 8 8 8 8 8 8 8 8
13 13 13 12 12 12 12 12 11 11 11 11 11 10 11 11 11 10 10 9 9 9 9 9 9 9 9 9 10 10 9 9 9 9 9 8 8 8 8 8 8 8 8 8 8 8 8 8 8
13 13 13 13 12 12 12 12 12 11 11 11 11 11 11 11 11 10 10 10 10 10 10 9 9 9 10 9 10 9 9 9 9 9 9 8 8 8 8 8 7 8 8 8 8 8 8 8 8
14 14 14 13 13 13 12 12 12 11 11 11 11 11 12 11 11 11 11 10 10 10 10 10 9 9 9 9 9 9 9 9 9 9 8 8 8 8 8 8 8 8 8 8 8 8 8 8 8
14 14 14 15 13 13 12 12 12 12 12 11 11 11 12 11 11 11 11 11 10 10 10 10 10 9 9 9 9 9 9 9 9 8 8 8 8 8 8 8 8 8 8 8 8 8 8 8 8
14 15 15 14 14 13 12 12 12 13 12 12 11 12 12 11 11 11 11 10 10 10 10 10 9 9 9 9 9 9 9 9 8 8 8 8 8 8 8 8 8 8 8 8 8 8 8 8 8
15 14 14 14 14 13 13 12 12 13 13 13 12 12 12 11 11 11 11 10 10 9 9 9 9 9 9 9 8 8 8 8 8 8 8 8 8 8 8 8 8 8 8 8 8 8 8 8 8
15 14 15 14 14 14 13 13 13 12 13 13 12 13 13 12 11 10 11 10 10 10 9 9 9 9 9 9 9 9 9 9 8 8 8 8 8 8 8 8 8 8 8 8 8 8 8 8 8
14 14 15 15 15 15 13 13 13 13 13 13 12 12 13 13 12 11 11 11 10 10 10 9 9 9 9 9 9 9 9 9 8 8 8 8 8 8 8 8 8 8 8 8 8 8 8 8 8
15 15 16 15 15 15 14 13 14 14 14 14 13 13 12 13 13 12 12 12 11 11 10 10 9 9 9 9 9 9 9 9 9 8 8 8 9 9 8 8 8 8 8 8 8 8 8 8 8
15 16 16 15 15 15 14 14 13 14 15 14 15 15 14 13 13 12 12 11 11 10 10 10 10 10 9 9 9 9 9 9 9 9 8 8 8 8 8 8 8 8 9 8 8 8 8 8 8
15 16 16 16 15 15 15 14 14 14 13 15 15 14 14 14 14 13 12 12 12 12 11 11 10 10 10 10 9 9 9 9 9 9 9 9 8 8 8 8 8 8 8 8 8 8 7 7 7
16 16 17 16 16 15 14 15 15 14 14 15 15 14 14 14 14 13 12 12 12 12 11 11 11 10 10 9 9 9 9 9 9 9 9 9 8 8 8 8 8 8 8 8 8 8 8 8 7
16 17 17 16 16 15 15 14 14 14 14 14 15 15 14 14 14 14 14 13 12 12 11 11 10 10 10 9 9 9 9 9 9 9 9 9 8 8 8 8 8 8 8 8 8 8 8 8 7
16 16 16 16 15 15 14 14 13 13 14 14 15 14 14 14 14 14 13 13 12 12 12 11 10 9 10 10 9 9 9 9 9 9 9 9 9 9 9 8 9 8 8 8 8 7 7 7 7
16 16 16 15 15 15 14 14 14 13 13 13 14 14 14 14 14 13 13 13 13 13 12 11 11 10 10 10 9 10 10 9 9 9 9 9 9 9 9 8 8 8 8 8 8 8 8 8 8
15 16 15 14 14 15 14 14 15 14 14 13 14 14 14 14 14 14 14 13 13 12 12 12 11 11 10 10 10 10 10 9 9 9 9 9 9 9 8 8 8 8 8 8 9 9 9 9 9
15 16 15 15 15 14 15 15 16 16 15 14 14 14 14 14 14 14 13 13 13 13 12 11 11 10 10 10 10 10 10 10 10 10 9 9 9 9 8 9 8 8 8 9 9 9 9 9 9
17 16 16 15 14 15 15 16 16 16 15 15 14 14 14 14 13 13 13 13 13 13 12 11 11 10 10 10 10 10 10 10 10 10 10 9 9 8 8 8 9 9 9 9 10 9 9 9 9
16 16 16 15 14 13 14 15 15 16 16 16 15 15 14 13 13 13 13 13 13 12 12 12 11 11 11 11 10 11 11 11 11 11 10 10 10 10 9 9 9 9 9 9 9 9 9 9 9
16 16 15 15 14 14 14 14 15 15 16 16 15 15 14 14 15 14 14 14 13 13 13 13 12 12 11 10 10 10 11 11 11 11 11 11 11 11 10 10 10 9 9 9 9 9 8 8 8
16 16 16 16 16 15 14 14 15 15 16 16 16 15 15 14 15 14 14 14 14 14 13 13 13 12 12 11 10 10 10 10 10 10 10 11 11 11 11 10 10 10 10 10 9 9 8 8 8
16 16 16 16 16 16 14 14 17 16 15 17 17 16 15 15 15 15 15 14 14 14 14 13 12 12 12 11 11 11 11 10 10 10 10 10 10 10 11 11 10 10 10 10 9 9 8 8 8
16 16 16 16 15 12 16 14 16 16 18 19 18 17 16 16 15 15 14 14 14 14 14 13 13 12 12 11 11 11 11 11 11 11 11 11 11 10 10 11 11 10 10 9 9 8 7 7 7
16 16 15 13 11 10 17 13 16 17 18 18 18 18 17 16 16 15 14 14 14 14 14 13 13 13 12 12 11 11 11 11 11 11 10 10 10 10 11 10 11 11 10 9 9 7 7 7 7
16 16 15 12 9 13 15 13 17 19 18 18 18 18 17 17 16 16 15 14 14 14 13 13 13 13 13 12 11 11 11 10 10 10 10 10 9 9 9 10 10 10 10 9 8 8 7 7 7
16 16 16 16 14 13 15 17 18 18 19 19 18 18 18 17 17 16 15 14 14 13 14 13 13 13 13 13 12 11 11 10 10 10 10 9 9 9 9 9 10 10 10 9 8 7 7 7 6
15 16 16 15 10 11 13 15 18 19 19 19 18 19 18 18 17 17 16 15 15 14 14 13 13 13 12 12 12 12 11 11 10 10 10 9 9 9 9 9 9 10 9 9 8 7 6 6 6
15 15 15 15 15 9 10 15 18 19 19 19 19 19 19 18 18 18 17 16 15 15 14 14 13 13 12 12 12 12 11 11 10 10 10 9 9 8 9 9 9 9 9 9 8 7 6 5 5
15 15 16 15 14 15 16 17 18 19 19 19 19 19 19 19 18 17 17 16 15 15 15 14 14 14 13 12 12 11 11 9 10 10 9 9 8 8 8 8 9 9 9 8 8 6 6 5 5
Height
3163 3161 3161 3160 3163 3160 3160 3164 3164 3164 3166 3166 3166 3169 3170 3170 3171 3176 3173 3177 3178 3181 3181 3185 3187 3188 3190 3192 3194 3196 3198 3201 3203 3206 3208 3210 3211 3213 3214 3215 3215 3216 3216 3215 3215 3214 3213 3212 3211
3165 3164 3164 3161 3165 3162 3163 3165 3166 3166 3167 3168 3169 3170 3172 3172 3173 3175 3176 3179 3182 3184 3185 3187 3190 3191 3193 3195 3199 3201 3202 3205 3207 3209 3210 3212 3213 3214 3215 3216 3216 3216 3216 3216 3216 3215 3214 3213 3212
3168 3168 3167 3167 3168 3167 3167 3167 3167 3168 3169 3170 3171 3173 3173 3175 3177 3179 3180 3182 3184 3186 3188 3190 3193 3195 3198 3199 3201 3203 3206 3208 3209 3211 3212 3213 3215 3215 3216 3217 3217 3217 3217 3218 3217 3215 3214 3213 3212
3168 3171 3171 3169 3170 3170 3169 3168 3169 3169 3170 3172 3174 3174 3176 3178 3180 3183 3183 3185 3187 3189 3191 3194 3195 3198 3200 3202 3204 3206 3207 3209 3211 3212 3213 3214 3216 3217 3218 3218 3218 3218 3219 3218 3217 3216 3214 3213 3213
3169 3170 3171 3170 3171 3172 3172 3171 3171 3171 3172 3173 3174 3177 3177 3179 3183 3185 3187 3187 3190 3193 3194 3196 3198 3201 3202 3204 3206 3208 3210 3212 3213 3214 3215 3217 3217 3218 3219 3220 3219 3219 3219 3219 3217 3216 3215 3214 3213
3169 3170 3172 3172 3172 3174 3173 3173 3172 3173 3174 3175 3175 3178 3179 3181 3185 3187 3189 3190 3192 3195 3197 3198 3201 3203 3205 3207 3209 3211 3213 3214 3215 3216 3217 3218 3219 3220 3220 3220 3220 3220 3219 3218 3218 3217 3216 3215 3214
3171 3172 3173 3174 3174 3176 3176 3175 3175 3175 3176 3177 3179 3179 3181 3183 3185 3188 3190 3192 3193 3196 3198 3201 3203 3204 3207 3210 3211 3212 3214 3214 3216 3216 3218 3219 3219 3221 3221 3221 3219 3219 3219 3218 3217 3216 3216 3215 3215
3173 3174 3173 3174 3175 3177 3177 3176 3176 3177 3177 3178 3181 3181 3181 3182 3186 3189 3190 3192 3194 3197 3200 3203 3204 3207 3209 3209 3211 3213 3214 3216 3216 3218 3219 3220 3221 3220 3220 3221 3219 3219 3219 3218 3217 3217 3216 3216 3213
3173 3174 3173 3174 3175 3176 3177 3177 3177 3178 3178 3179 3181 3182 3184 3183 3185 3188 3190 3192 3195 3197 3200 3202 3205 3207 3209 3211 3212 3213 3214 3215 3217 3218 3219 3219 3220 3220 3220 3220 3220 3219 3218 3218 3217 3216 3216 3216 3214
3173 3172 3172 3173 3173 3175 3176 3177 3178 3179 3179 3180 3181 3182 3184 3185 3187 3189 3191 3194 3196 3198 3201 3203 3205 3208 3210 3211 3212 3214 3214 3215 3216 3218 3219 3219 3219 3220 3220 3219 3220 3219 3218 3218 3217 3216 3216 3216 3214
3171 3170 3172 3172 3173 3175 3176 3177 3179 3179 3180 3181 3182 3183 3184 3186 3187 3190 3193 3196 3198 3199 3201 3204 3206 3207 3209 3211 3212 3213 3215 3216 3217 3218 3219 3218 3218 3219 3219 3219 3219 3219 3217 3217 3216 3215 3215 3215 3214
3169 3169 3171 3171 3172 3174 3175 3177 3178 3180 3182 3182 3183 3185 3186 3187 3188 3190 3192 3195 3197 3199 3202 3204 3206 3208 3209 3210 3212 3213 3214 3216 3217 3218 3218 3217 3218 3217 3218 3218 3218 3218 3218 3216 3215 3214 3213 3212 3211
3167 3167 3170 3170 3171 3172 3175 3177 3179 3180 3181 3183 3184 3184 3187 3188 3190 3191 3193 3195 3197 3199 3202 3204 3206 3208 3209 3210 3211 3212 3214 3215 3215 3216 3217 3217 3217 3216 3217 3217 3217 3217 3216 3215 3214 3212 3211 3210 3209
3166 3166 3169 3171 3171 3172 3173 3176 3179 3180 3182 3183 3184 3185 3187 3188 3190 3191 3192 3194 3196 3198 3201 3203 3205 3207 3208 3210 3211 3212 3213 3214 3214 3215 3215 3215 3215 3216 3215 3215 3215 3214 3214 3213 3211 3210 3209 3207 3205
3163 3165 3167 3170 3170 3172 3174 3176 3176 3179 3181 3183 3184 3185 3186 3187 3189 3191 3193 3195 3196 3198 3200 3203 3204 3205 3208 3208 3209 3210 3211 3212 3213 3214 3214 3215 3215 3214 3214 3212 3211 3211 3210 3209 3208 3207 3206 3204 3201
3162 3164 3166 3168 3169 3172 3175 3173 3174 3176 3178 3181 3183 3184 3186 3187 3189 3190 3191 3193 3195 3197 3199 3201 3203 3205 3206 3207 3208 3209 3210 3210 3211 3212 3212 3212 3213 3212 3212 3210 3209 3208 3207 3206 3205 3203 3201 3199 3198
3160 3160 3164 3166 3168 3170 3172 3172 3172 3173 3175 3178 3181 3183 3184 3186 3187 3189 3190 3191 3193 3195 3198 3200 3201 3203 3204 3205 3206 3207 3208 3208 3209 3209 3209 3210 3210 3210 3208 3207 3206 3206 3204 3203 3201 3199 3197 3195 3193
3155 3159 3162 3164 3165 3167 3169 3170 3171 3172 3173 3175 3178 3180 3182 3184 3186 3187 3188 3190 3191 3193 3195 3197 3199 3201 3202 3204 3204 3205 3206 3206 3206 3206 3206 3206 3206 3206 3205 3204 3202 3202 3201 3200 3199 3196 3194 3192 3190
3155 3158 3158 3162 3166 3167 3166 3169 3171 3171 3172 3171 3173 3176 3178 3181 3184 3184 3185 3187 3189 3191 3193 3195 3197 3198 3200 3201 3202 3202 3203 3202 3201 3201 3202 3202 3202 3201 3201 3201 3200 3199 3198 3197 3195 3193 3191 3189 3188
3153 3155 3157 3163 3166 3169 3169 3169 3170 3171 3171 3171 3171 3173 3174 3177 3177 3179 3181 3183 3186 3189 3191 3192 3195 3197 3198 3200 3201 3200 3198 3198 3198 3198 3198 3198 3197 3197 3196 3196 3196 3195 3194 3193 3191 3189 3188 3186 3185
3149 3151 3156 3160 3164 3166 3167 3168 3166 3168 3169 3170 3169 3170 3172 3173 3175 3178 3179 3181 3183 3186 3189 3191 3193 3196 3197 3199 3200 3200 3199 3199 3199 3198 3197 3196 3195 3194 3194 3193 3192 3191 3190 3187 3186 3185 3184 3183 3182
3145 3149 3155 3158 3159 3159 3161 3161 3160 3162 3164 3164 3166 3167 3168 3171 3173 3176 3178 3179 3181 3184 3187 3190 3192 3194 3195 3197 3198 3199 3200 3199 3199 3199 3198 3196 3195 3195 3194 3192 3191 3189 3187 3184 3182 3180 3179 3178 3177
3144 3148 3151 3154 3155 3155 3156 3160 3154 3157 3158 3158 3159 3162 3166 3168 3171 3174 3176 3178 3181 3182 3185 3187 3190 3192 3194 3195 3196 3198 3198 3198 3198 3198 3197 3197 3196 3195 3194 3192 3191 3188 3185 3183 3180 3178 3176 3175 3174
3140 3144 3148 3150 3149 3152 3151 3153 3148 3150 3150 3152 3155 3158 3161 3165 3167 3170 3174 3176 3178 3180 3183 3185 3187 3189 3192 3193 3194 3195 3196 3196 3197 3197 3197 3197 3195 3193 3191 3189 3188 3186 3184 3181 3178 3176 3174 3173 3172
3132 3137 3140 3145 3148 3147 3144 3148 3142 3143 3145 3148 3151 3154 3157 3161 3163 3166 3169 3171 3174 3177 3181 3184 3185 3186 3189 3191 3192 3193 3193 3193 3195 3195 3196 3195 3193 3191 3189 3189 3187 3184 3182 3179 3176 3173 3171 3170 3169
3126 3131 3133 3142 3144 3139 3139 3137 3134 3140 3141 3144 3148 3151 3155 3156 3158 3161 3164 3168 3171 3174 3177 3180 3182 3183 3185 3187 3188 3190 3190 3191 3192 3193 3193 3193 3191 3190 3189 3187 3186 3183 3180 3176 3173 3169 3168 3167 3166
3121 3123 3131 3133 3133 3136 3134 3132 3132 3135 3137 3139 3143 3146 3148 3151 3153 3155 3159 3163 3167 3170 3173 3175 3177 3180 3182 3183 3184 3186 3187 3188 3190 3189 3189 3189 3188 3187 3186 3185 3183 3179 3176 3173 3171 3168 3165 3165 3164
3114 3121 3125 3124 3132 3135 3128 3127 3128 3132 3133 3135 3137 3139 3141 3146 3149 3151 3154 3158 3162 3165 3168 3171 3173 3176 3178 3179 3180 3181 3182 3184 3185 3185 3185 3186 3185 3184 3183 3182 3180 3176 3172 3170 3168 3166 3164 3162 3160
3107 3109 3115 3119 3120 3121 3127 3122 3125 3128 3130 3131 3133 3134 3136 3140 3143 3146 3150 3154 3157 3160 3162 3165 3168 3170 3172 3174 3175 3176 3178 3178 3179 3180 3181 3180 3180 3180 3178 3177 3175 3173 3170 3168 3165 3163 3161 3160 3156
3100 3103 3108 3110 3113 3115 3116 3116 3120 3123 3125 3127 3128 3129 3132 3135 3140 3143 3146 3149 3151 3154 3157 3159 3162 3164 3167 3168 3169 3169 3170 3172 3173 3175 3175 3174 3175 3174 3173 3172 3169 3167 3166 3164 3162 3159 3157 3155 3152
Wind_Speed
6 9 7 7 8 9 12 11 14 13 11 10 16 21 16 18 15 18 30 27 26 25 27 25 25 26 26 26 24 23 23 23 22 21 19 17 16 15 13 11 9 9 9 9 8 7 7 9 10
7 6 6 5 9 12 12 13 17 11 11 15 14 11 11 7 13 29 28 26 23 23 25 25 24 25 24 23 21 21 22 22 21 19 19 17 16 14 13 11 10 9 9 8 6 6 7 9 10
8 6 5 5 6 7 13 15 10 13 12 13 12 6 2 19 24 23 26 27 26 25 23 22 23 23 21 21 19 20 21 20 19 19 18 17 14 14 12 10 8 8 6 4 5 7 7 9 9
7 6 2 2 4 7 13 11 11 13 12 14 10 8 22 21 22 23 26 26 24 22 21 21 22 21 19 19 18 20 20 19 18 17 16 14 12 11 9 8 6 5 4 5 6 6 7 8 9
7 7 6 5 4 5 9 11 9 11 11 11 11 22 22 23 21 22 22 23 21 20 20 20 20 19 18 18 17 18 18 17 16 14 13 11 10 8 6 5 4 4 4 5 6 6 6 7 8
7 9 11 7 2 7 10 9 11 10 10 11 14 19 20 22 21 21 21 20 20 18 19 20 20 18 16 16 15 15 15 13 12 11 9 7 6 4 2 3 4 5 5 6 5 5 5 6 8
14 12 11 8 6 9 12 10 10 14 10 8 15 17 20 23 22 20 20 19 19 18 17 16 16 15 14 13 12 12 12 11 10 8 7 5 4 2 3 5 4 4 5 4 4 4 4 5 8
8 6 2 6 9 9 11 12 11 12 13 10 12 8 17 22 22 19 18 17 16 16 15 14 13 14 13 13 11 10 10 8 7 6 5 3 1 1 3 4 5 3 4 3 4 5 4 5 5
4 3 4 5 10 11 13 11 13 13 14 12 11 5 12 17 20 20 18 18 17 16 15 14 12 12 12 11 11 11 10 8 7 6 3 3 1 4 3 3 2 3 3 4 5 5 5 5 6
13 10 10 9 8 13 12 11 10 12 11 10 10 11 14 13 15 16 15 14 14 13 12 12 11 10 10 10 10 8 8 7 5 4 4 4 3 2 3 3 3 4 5 6 6 5 6 7 8
19 17 15 14 6 13 13 14 11 12 9 6 6 9 11 14 16 15 14 12 9 11 10 9 10 11 10 8 8 7 5 5 5 4 4 4 4 5 5 3 4 5 6 9 9 8 9 9 10
21 15 18 10 13 15 16 11 11 10 6 5 7 9 10 13 14 15 15 15 13 11 11 11 11 10 9 9 9 8 7 6 6 5 4 5 5 7 8 8 8 8 8 9 11 11 12 13 14
20 18 15 13 13 15 19 12 9 9 6 9 8 10 12 11 13 14 14 13 13 12 12 12 12 10 10 9 6 8 7 7 7 6 5 6 6 9 10 11 12 12 12 13 14 15 15 16 16
20 19 11 14 15 17 22 15 14 14 10 10 9 7 11 11 11 12 12 12 13 14 12 12 11 11 9 10 8 7 7 6 5 5 6 7 9 10 12 13 14 15 14 14 15 16 17 20 20
14 12 15 20 18 21 22 18 18 15 14 11 13 9 10 11 11 9 9 9 12 10 11 10 9 10 7 8 9 9 8 7 6 7 8 8 9 12 13 15 15 16 14 17 17 17 18 20 22
13 14 22 25 23 22 22 16 14 18 19 17 15 14 12 11 9 11 11 11 10 11 9 10 10 12 11 9 8 10 10 9 9 10 11 12 13 14 14 15 16 16 18 19 20 23 23 23 22
24 23 29 30 28 26 27 17 14 13 18 20 19 16 14 15 14 12 11 9 9 9 10 8 8 9 10 10 9 8 9 10 11 11 12 13 14 13 13 14 17 18 22 23 23 22 20 19 18
27 28 34 34 34 32 28 18 9 8 12 22 22 20 18 18 15 14 13 12 11 11 11 11 9 10 10 9 9 9 10 11 11 13 14 14 15 15 16 15 16 19 20 20 19 18 18 17 15
29 32 40 36 27 34 29 23 16 9 7 12 27 24 22 19 15 16 15 14 12 13 13 10 8 7 8 5 4 4 5 6 7 9 11 13 14 15 15 16 19 19 17 16 16 16 16 17 13
25 34 41 31 28 27 32 26 18 15 7 5 8 18 19 19 24 22 21 18 15 13 12 11 8 4 5 9 9 8 6 4 4 5 5 7 9 10 10 10 11 13 13 14 14 14 15 14 13
25 37 35 35 33 24 27 26 27 21 14 14 14 14 15 16 15 17 18 14 15 14 12 10 8 10 12 13 14 15 15 14 13 11 10 9 9 9 9 9 10 12 14 15 15 15 13 12 11
25 31 33 17 18 28 29 12 32 28 24 23 21 22 20 18 18 18 17 15 15 16 16 14 14 14 13 12 11 11 13 15 17 19 20 19 16 13 11 11 12 13 14 15 15 15 12 11 11
27 31 30 20 16 17 22 14 30 30 32 30 27 25 22 22 20 18 17 16 14 16 17 19 18 16 16 16 13 10 9 10 12 14 17 19 19 19 16 13 13 14 15 14 14 13 13 13 13
31 19 17 11 11 9 25 30 31 34 34 25 27 28 25 24 23 21 20 17 17 16 17 20 20 19 17 16 14 12 10 7 6 7 11 13 15 21 21 21 18 17 16 15 13 11 11 12 13
33 25 3 1 4 6 15 22 32 27 30 31 21 16 21 24 27 25 23 21 20 18 16 16 19 18 16 15 13 12 10 7 3 2 6 10 14 17 20 23 21 19 18 15 13 12 11 12 13
37 35 14 6 5 6 11 17 32 17 29 20 20 16 19 21 21 29 25 23 20 17 15 15 17 19 17 16 17 15 14 11 8 5 7 11 13 16 18 20 22 19 18 16 15 14 14 14 15
31 30 28 24 10 3 8 20 29 26 22 24 32 28 24 22 22 24 25 26 23 21 17 13 13 16 21 20 21 20 18 16 14 11 10 12 14 15 17 20 22 21 19 19 17 15 15 15 16
33 31 19 12 5 5 7 11 26 22 21 23 25 22 25 27 22 24 24 23 21 17 18 20 18 17 18 21 24 25 23 22 21 19 16 16 17 17 19 19 19 21 19 18 18 16 16 15 15
39 30 27 15 13 7 4 9 18 13 14 18 25 16 21 23 21 17 22 20 17 14 18 19 21 22 23 23 25 29 30 29 28 25 23 20 22 21 21 19 18 19 18 18 18 18 18 17 17
45 39 36 29 13 9 14 24 11 19 25 23 14 16 19 20 20 16 16 19 21 22 21 21 22 24 21 27 29 32 35 34 33 31 27 26 25 23 24 19 18 18 18 18 18 18 17 15 16
Wind_Direction
4 7 26 54 61 92 104 135 139 137 116 91 107 121 111 115 108 129 128 127 128 129 122 123 127 125 122 118 117 123 125 125 122 122 122 121 122 125 122 116 105 93 87 76 63 45 29 21 18
45 94 64 57 102 95 109 129 154 139 118 121 115 137 114 115 126 130 126 129 130 128 127 126 129 126 119 113 114 120 121 121 121 121 121 121 119 117 112 107 100 92 75 63 47 26 12 10 13
91 95 73 79 124 90 121 141 135 146 140 148 139 129 104 131 132 131 127 127 128 127 124 126 128 122 117 114 115 120 123 125 124 125 122 116 114 111 109 104 91 76 67 46 24 8 6 12 15
129 142 122 323 145 96 128 138 144 152 145 158 173 120 130 130 132 133 130 128 127 124 123 126 127 127 126 123 127 130 132 136 134 130 123 122 118 111 104 96 82 67 53 42 29 16 8 13 18
128 126 128 119 148 117 117 122 120 169 169 173 165 148 140 138 143 137 135 131 131 130 129 130 133 137 136 134 134 137 142 138 135 131 127 123 115 110 101 89 71 49 40 33 25 17 9 24 22
136 128 145 146 163 121 110 124 137 126 134 143 152 153 145 146 147 144 141 137 136 137 137 137 139 142 139 139 138 141 139 136 136 139 134 125 117 101 64 25 13 21 26 33 28 28 16 24 32
99 130 148 170 187 155 109 112 129 134 130 134 165 155 150 152 151 152 148 145 142 144 142 138 138 139 138 139 140 135 138 146 149 145 140 138 142 100 27 12 22 55 40 43 34 27 22 16 17
136 129 109 182 206 198 140 114 128 144 143 142 175 196 167 157 158 159 153 147 145 147 147 147 146 140 144 148 143 146 150 152 158 159 152 160 145 354 5 35 56 62 58 34 21 9 4 9 6
133 210 125 248 233 218 183 151 137 143 135 155 164 174 178 165 165 169 166 162 160 157 155 153 151 154 156 157 161 164 164 172 169 168 166 219 292 326 332 331 28 352 1 348 341 337 354 347 343
225 242 279 298 259 208 187 175 152 148 133 147 166 162 186 172 168 173 172 166 163 165 158 156 159 165 169 176 174 178 177 181 185 187 199 243 271 277 332 311 324 312 318 337 342 329 337 331 335
248 272 308 290 282 206 196 186 195 162 145 122 155 130 157 163 161 167 168 161 167 176 170 168 176 180 178 183 190 196 203 217 216 213 223 252 264 269 287 297 298 300 315 319 328 329 324 320 319
252 271 306 263 258 226 211 198 196 168 157 159 144 184 154 156 157 162 167 171 173 175 183 184 188 189 191 192 200 209 218 236 239 231 243 264 276 280 285 285 286 287 298 306 311 310 305 306 306
256 280 284 235 232 230 222 217 205 171 177 177 167 170 177 166 161 162 169 178 184 183 185 191 192 193 196 197 207 214 220 236 250 244 243 248 270 284 282 279 282 287 295 298 303 303 303 302 302
256 270 243 201 193 210 206 213 204 203 200 191 186 177 188 187 180 175 171 176 186 187 188 198 200 198 202 210 220 219 232 242 222 253 264 268 274 279 287 290 291 291 293 296 296 298 299 298 297
252 223 220 198 202 201 203 219 208 210 218 202 191 197 201 196 196 187 192 191 203 200 201 207 213 216 220 222 233 249 257 245 243 251 255 262 277 286 289 290 292 293 297 299 297 297 296 297 301
197 214 190 199 203 208 209 222 211 209 220 219 200 199 200 203 194 184 190 200 201 208 204 214 222 216 232 250 244 253 261 261 257 254 259 263 273 279 279 281 286 294 295 296 301 304 304 305 304
185 186 196 195 207 210 215 230 221 217 207 217 207 206 206 206 200 201 203 203 205 207 208 214 231 224 239 241 253 253 251 255 262 268 271 272 271 272 276 289 290 292 291 298 304 307 308 307 308
185 194 202 204 202 211 215 223 250 222 216 218 215 212 217 216 206 210 212 214 215 208 203 207 223 230 234 239 251 242 251 259 264 265 267 269 274 279 280 281 276 287 292 294 301 303 304 306 313
211 209 209 207 206 212 218 234 248 265 238 225 220 215 215 219 220 214 210 209 218 223 222 216 228 225 234 226 221 223 242 258 264 262 261 269 271 274 273 261 265 285 293 302 302 298 300 303 312
202 211 213 214 217 226 224 236 242 248 304 294 230 217 220 224 222 216 207 213 221 221 215 207 207 215 154 130 112 93 65 38 360 334 311 295 296 300 294 292 290 296 304 304 302 304 306 305 313
200 211 211 226 235 239 233 247 240 225 219 206 195 193 207 208 204 205 204 196 192 189 185 175 161 147 141 128 109 92 80 72 64 55 43 30 16 3 348 334 323 317 317 316 315 315 312 316 316
191 209 211 226 222 216 223 233 241 231 226 226 206 199 192 191 187 185 183 175 164 166 169 162 158 151 147 146 135 118 102 81 67 59 53 46 37 22 2 346 335 330 325 322 325 324 328 334 323
223 204 216 229 227 226 215 220 243 246 231 240 239 228 207 196 192 183 181 174 171 173 175 171 166 159 150 140 139 141 122 98 70 50 46 40 32 27 18 5 355 349 343 339 332 331 333 327 319
225 207 200 202 221 207 243 218 240 238 244 255 249 241 228 208 198 197 197 192 190 191 193 188 180 172 167 154 147 137 121 98 70 42 31 24 22 16 12 7 359 354 348 342 331 324 320 316 315
226 227 214 138 157 208 249 220 242 257 255 250 261 261 245 230 217 209 207 205 209 214 209 205 202 197 197 191 180 177 171 153 133 47 356 356 1 6 5 360 353 347 344 337 327 322 322 320 316
229 229 210 186 180 216 217 213 256 257 254 258 255 266 248 240 233 230 223 217 215 224 226 226 228 226 227 226 211 206 207 211 224 258 298 322 338 346 346 348 348 339 338 336 330 329 325 320 310
222 229 239 240 265 244 220 252 265 250 247 252 253 256 222 219 218 216 227 231 222 223 233 228 230 237 243 246 226 229 225 232 247 267 284 299 315 326 330 333 340 337 337 337 330 321 314 308 301
232 234 222 207 144 219 235 229 243 244 241 252 239 255 222 215 216 216 216 224 230 229 235 241 241 241 249 254 253 248 246 249 255 267 277 285 299 309 316 322 332 336 334 332 326 318 309 305 301
227 224 228 228 217 172 202 237 237 235 228 244 242 255 233 219 211 218 221 220 224 228 235 238 240 241 242 245 253 255 257 247 256 264 272 277 287 293 301 314 325 328 325 328 321 312 307 303 300
235 235 233 225 225 219 238 242 250 263 254 244 247 246 208 214 207 210 215 218 222 225 224 223 236 245 251 251 251 251 247 255 254 261 269 272 279 282 294 307 316 322 321 320 314 309 307 304 308